Overview Statistics Trail Chart Weather Telemetry Raw packets
 

This is the latest recevied weather packets stored in our database for station/object W5ALL-WX. If no packets are shown the sender has not sent any weather packets the latest 10 day(s).

<< 44 45 46 47 48 49 50 >>
Time Temp. Humidity Pressure Rain* Wind** Luminosity Snow
1777697191 12.78° C 73% 1019.9 hPa 0 mm - - -
1777696892 12.78° C 73% 1019.9 hPa 0 mm - - -
1777696592 12.78° C 73% 1019.9 hPa 0 mm - - -
1777696292 12.78° C 73% 1019.9 hPa 0 mm - - -
1777695991 13.33° C 73% 1019.8 hPa 0 mm - - -
1777695692 12.78° C 73% 1019.8 hPa 0 mm - - -
1777695391 12.78° C 72% 1019.8 hPa 0 mm - - -
1777695092 13.33° C 72% 1019.7 hPa 0 mm - - -
1777694791 13.33° C 71% 1019.6 hPa 0 mm - - -
1777694491 13.33° C 71% 1019.4 hPa 0 mm - - -
1777694191 13.33° C 71% 1019.2 hPa 0 mm - - -
1777693891 13.33° C 70% 1019 hPa 0 mm - - -
1777693591 13.89° C 70% 1018.9 hPa 0 mm - - -
1777693291 13.89° C 69% 1018.9 hPa 0 mm - - -
1777692991 14.44° C 68% 1018.8 hPa 0 mm - - -
1777692691 15° C 63% 1018.5 hPa 0 mm - - -
1777692391 15° C 59% 1018.3 hPa 0 mm - - -
1777692091 15° C 60% 1018.1 hPa 0 mm - - -
1777691791 14.44° C 58% 1018.1 hPa 0 mm - - -
1777691491 14.44° C 58% 1017.8 hPa 0 mm - - -
1777691191 14.44° C 59% 1017.8 hPa 0 mm - - -
1777690801 14.44° C 58% 1017.7 hPa 0 mm - - -
1777690501 14.44° C 59% 1017.6 hPa 0 mm - - -
1777690201 14.44° C 59% 1017.5 hPa 0 mm - - -
1777689901 14.44° C 58% 1017.4 hPa 0 mm - - -

* Rain latest hour (hover to see other rain measurements)
** Current wind speed in m/s (hover to see current wind gust speed)